Location: Sternwarte ZA, Rosenfeld-Brittheim
(48.2889°N, 8.6789°E)
Time: 20:23:16
(UTC+02:00)

ISS - Pass Details

Date: 20 July 2019
Orbit: 409 x 418 km, 51.6° (Epoch: 20 July)

Event Time Altitude Azimuth Distance (km) Brightness Sun altitude
Rises 22:59:43 0° 256° (WSW) 2,350 0.4 -13.2°
Reaches altitude 10° 23:01:49 10° 260° (W) 1,487 -0.6 -13.4°
Maximum altitude 23:05:09 66° 343° (NNW) 455 -3.4 -13.7°
Drops below altitude 10° 23:08:28 10° 67° (ENE) 1,486 -1.1 -14.0°
Sets 23:10:34 0° 70° (ENE) 2,348 -0.1 -14.2°
